Date String (YYYY-MM-DD hh:mm:ss) UTC,Instrument flags,absolute air pressure of the measurement (hPa),sample flow rate (lpm),inlet stack bypass flow (lpm),air temperature of the measurement (°C),ambient temperature measured by the external sensor (°C),aerosol sample conditioner tube jacket temperature (°C),OPC LED temperature (°C),internal box temperature (°C),relative humidity of the measurement (%),span deviation,mass concentration of particles derived from Lorenz-Mie calculation of OPC scattering (μg/m³),mass concentration of particles derived from Lorenz-Mie calculation of OPC scattering (μg/m³),mass concentration of particles derived from Lorenz-Mie calculation of OPC scattering (μg/m³)
DateTimeUTC,F1_M11,P_M11,Q1_M11,Q2_M11,T1_M11,T2_M11,T3_M11,T4_M11,T5_M11,U1_M11,ZSPAN_M11,X2_M11,X0_M11,X1_M11
2023-12-30 09:00:00,SystemResetWarning,0830.7,5.00,000.00,022.0,021.1,000.0,030.4,023.4,8.6,0000.0,0003.82,0009.69,0003.22
2023-12-30 09:01:00,SystemResetWarning,0830.7,5.00,000.00,022.0,021.1,000.0,030.4,023.4,8.7,0000.0,0003.83,0009.68,0003.23
2023-12-30 09:02:00,SystemResetWarning,0830.7,5.00,000.00,022.0,021.1,000.0,030.4,023.4,8.6,0000.0,0003.87,0009.59,0003.24
2023-12-30 09:03:00,SystemResetWarning,0830.7,5.01,000.00,022.0,021.1,000.0,030.4,023.4,8.7,0000.0,0003.85,0009.57,0003.25
2023-12-30 09:04:00,SystemResetWarning,0830.7,5.00,000.00,022.0,021.1,000.0,030.4,023.4,8.7,0000.0,0003.83,0009.47,0003.25
2023-12-30 09:05:00,SystemResetWarning,0830.7,5.00,000.00,022.0,021.1,000.0,030.4,023.4,8.6,0000.0,0003.80,0008.59,0003.24
2023-12-30 09:06:00,SystemResetWarning,0830.7,4.99,000.00,022.0,021.1,000.0,030.4,023.4,8.6,0000.0,0003.84,0009.10,0003.24
2023-12-30 09:07:00,SystemResetWarning,0830.6,5.00,000.00,022.0,021.1,000.0,030.4,023.4,8.7,0000.0,0003.84,0009.10,0003.25
2023-12-30 09:08:00,SystemResetWarning,0830.6,4.99,000.00,022.0,021.1,000.0,030.4,023.4,8.7,0000.0,0003.84,0008.99,0003.25
2023-12-30 09:09:00,SystemResetWarning,0830.7,5.00,000.00,022.0,021.1,000.0,030.4,023.4,8.7,0000.0,0003.88,0009.01,0003.25
2023-12-30 09:10:00,SystemResetWarning,0830.7,5.00,000.00,022.0,021.1,000.0,030.4,023.4,8.7,0000.0,0003.88,0009.07,0003.26
2023-12-30 09:11:00,SystemResetWarning,0830.7,5.00,000.00,022.0,021.1,000.0,030.4,023.4,8.7,0000.0,0003.89,0009.82,0003.28
2023-12-30 09:12:00,SystemResetWarning,0830.7,5.00,000.00,022.0,021.1,000.0,030.4,023.4,8.7,0000.0,0003.90,0011.32,0003.29
2023-12-30 09:13:00,SystemResetWarning,0830.7,5.01,000.00,022.0,021.1,000.0,030.4,023.4,8.7,0000.0,0003.83,0010.77,0003.29
2023-12-30 09:14:00,SystemResetWarning,0830.8,5.00,000.00,022.0,021.1,000.0,030.3,023.4,8.7,0000.0,0003.82,0011.83,0003.27
2023-12-30 09:15:00,SystemResetWarning,0830.8,5.00,000.00,022.0,021.1,000.0,030.3,023.4,8.7,0000.0,0003.86,0012.26,0003.28
2023-12-30 09:16:00,SystemResetWarning,0830.9,5.01,000.00,022.0,021.1,000.0,030.3,023.4,8.7,0000.0,0003.89,0012.29,0003.28
2023-12-30 09:17:00,SystemResetWarning,0830.8,4.99,000.00,022.0,021.1,000.0,030.3,023.4,8.7,0000.0,0003.91,0012.10,0003.29
2023-12-30 09:18:00,SystemResetWarning,0830.8,4.99,000.00,022.0,021.1,000.0,030.3,023.4,8.7,0000.0,0003.93,0013.15,0003.30
2023-12-30 09:19:00,SystemResetWarning,0830.7,5.00,000.00,022.0,021.1,000.0,030.3,023.3,8.7,0000.0,0003.95,0013.55,0003.31
2023-12-30 09:20:00,SystemResetWarning,0830.8,5.00,000.00,022.0,021.1,000.0,030.3,023.3,8.7,0000.0,0003.92,0014.26,0003.30
2023-12-30 09:21:00,SystemResetWarning,0830.8,5.00,000.00,022.0,021.1,000.0,030.3,023.3,8.7,0000.0,0003.92,0015.88,0003.30
2023-12-30 09:22:00,SystemResetWarning,0830.8,5.00,000.00,022.0,021.1,000.0,030.3,023.3,8.7,0000.0,0003.94,0015.84,0003.30
2023-12-30 09:23:00,SystemResetWarning,0830.8,4.99,000.00,022.0,021.1,000.0,030.3,023.3,8.7,0000.0,0003.92,0014.59,0003.29
2023-12-30 09:24:00,SystemResetWarning,0830.8,5.00,000.00,022.0,021.1,000.0,030.3,023.3,8.7,0000.0,0003.97,0014.97,0003.29
2023-12-30 09:25:00,SystemResetWarning,0830.8,5.00,000.00,022.0,021.1,000.0,030.3,023.3,8.7,0000.0,0003.99,0013.90,0003.29
2023-12-30 09:26:00,SystemResetWarning,0830.7,5.00,000.00,022.0,021.1,000.0,030.3,023.3,8.7,0000.0,0003.98,0014.15,0003.29
2023-12-30 09:27:00,SystemResetWarning,0830.7,5.00,000.00,022.0,021.1,000.0,030.3,023.3,8.7,0000.0,0003.95,0014.76,0003.29
2023-12-30 09:28:00,SystemResetWarning,0830.8,4.99,000.00,022.0,021.1,000.0,030.3,023.3,8.6,0000.0,0003.93,0014.20,0003.29
2023-12-30 09:29:00,SystemResetWarning,0830.8,5.00,000.00,022.0,021.1,000.0,030.3,023.3,8.7,0000.0,0003.90,0013.21,0003.28
2023-12-30 09:30:00,SystemResetWarning,0830.8,5.00,000.00,022.0,021.1,000.0,030.3,023.3,8.7,0000.0,0003.89,0012.74,0003.27
2023-12-30 09:31:00,SystemResetWarning,0830.7,5.00,000.00,022.0,021.1,000.0,030.3,023.3,8.7,0000.0,0003.91,0012.22,0003.28
2023-12-30 09:32:00,SystemResetWarning,0830.7,5.00,000.00,022.0,021.1,000.0,030.3,023.3,8.8,0000.0,0003.87,0010.50,0003.28
2023-12-30 09:33:00,SystemResetWarning,0830.7,5.00,000.00,022.0,021.1,000.0,030.3,023.3,8.7,0000.0,0003.87,0009.56,0003.27
2023-12-30 09:34:00,SystemResetWarning,0830.7,5.00,000.00,022.0,021.1,000.0,030.3,023.4,8.7,0000.0,0003.89,0009.64,0003.28
2023-12-30 09:35:00,SystemResetWarning,0830.7,5.00,000.00,022.0,021.1,000.0,030.3,023.3,8.7,0000.0,0003.89,0009.66,0003.29
2023-12-30 09:36:00,SystemResetWarning,0830.7,5.01,000.00,021.9,021.1,000.0,030.3,023.3,8.7,0000.0,0003.91,0009.79,0003.30
2023-12-30 09:37:00,SystemResetWarning,0830.7,5.00,000.00,022.0,021.1,000.0,030.3,023.3,8.7,0000.0,0003.96,0009.94,0003.31
2023-12-30 09:38:00,SystemResetWarning,0830.7,5.00,000.00,022.0,021.1,000.0,030.3,023.3,8.7,0000.0,0003.99,0009.01,0003.33
2023-12-30 09:39:00,SystemResetWarning,0830.7,5.00,000.00,022.0,021.1,000.0,030.3,023.3,8.7,0000.0,0004.07,0009.17,0003.34
2023-12-30 09:40:00,SystemResetWarning,0830.7,5.00,000.00,022.0,021.0,000.0,030.3,023.3,8.7,0000.0,0004.06,0009.71,0003.35
2023-12-30 09:41:00,SystemResetWarning,0830.7,5.00,000.00,022.0,021.0,000.0,030.3,023.3,8.7,0000.0,0004.05,0009.65,0003.35
2023-12-30 09:42:00,SystemResetWarning,0830.7,5.00,000.00,021.9,021.0,000.0,030.3,023.3,8.7,0000.0,0004.05,0010.10,0003.35
2023-12-30 09:43:00,SystemResetWarning,0830.6,5.00,000.00,021.9,021.0,000.0,030.3,023.3,8.7,0000.0,0004.09,0010.99,0003.35
2023-12-30 09:44:00,SystemResetWarning,0830.7,5.00,000.00,021.9,021.0,000.0,030.3,023.3,8.7,0000.0,0004.08,0011.62,0003.35
2023-12-30 09:45:00,SystemResetWarning,0830.7,4.99,000.00,021.9,021.0,000.0,030.3,023.3,8.8,0000.0,0004.05,0011.39,0003.36
2023-12-30 09:46:00,SystemResetWarning,0830.7,5.00,000.00,021.9,021.0,000.0,030.3,023.3,8.8,0000.0,0004.04,0011.51,0003.37
2023-12-30 09:47:00,SystemResetWarning,0830.6,5.00,000.00,021.9,021.0,000.0,030.3,023.3,8.8,0000.0,0004.01,0011.32,0003.37
2023-12-30 09:48:00,SystemResetWarning,0830.7,5.01,000.00,021.9,021.0,000.0,030.2,023.3,8.8,0000.0,0004.01,0010.77,0003.38
2023-12-30 09:49:00,SystemResetWarning,0830.7,5.01,000.00,021.9,021.0,000.0,030.2,023.3,8.8,0000.0,0004.00,0010.90,0003.39
2023-12-30 09:50:00,SystemResetWarning,0830.7,5.00,000.00,021.9,021.0,000.0,030.2,023.3,8.8,0000.0,0003.97,0010.84,0003.39
2023-12-30 09:51:00,SystemResetWarning,0830.7,4.99,000.00,021.9,021.0,000.0,030.2,023.3,8.8,0000.0,0003.98,0010.44,0003.41
2023-12-30 09:52:00,SystemResetWarning,0830.7,4.99,000.00,021.9,021.0,000.0,030.2,023.3,8.8,0000.0,0004.02,0011.39,0003.42
2023-12-30 09:53:00,SystemResetWarning,0830.7,4.99,000.00,021.9,021.0,000.0,030.2,023.3,8.8,0000.0,0004.03,0011.64,0003.44
2023-12-30 09:54:00,SystemResetWarning,0830.7,5.00,000.00,021.9,021.0,000.0,030.2,023.3,8.8,0000.0,0004.05,0011.24,0003.46
2023-12-30 09:55:00,SystemResetWarning,0830.7,5.01,000.00,021.9,021.0,000.0,030.2,023.3,8.8,0000.0,0004.06,0010.58,0003.45
2023-12-30 09:56:00,SystemResetWarning,0830.7,5.00,000.00,021.9,021.0,000.0,030.2,023.2,8.8,0000.0,0004.08,0010.99,0003.45
2023-12-30 09:57:00,SystemResetWarning,0830.7,5.01,000.00,021.9,021.0,000.0,030.2,023.2,8.8,0000.0,0004.10,0010.57,0003.45
2023-12-30 09:58:00,SystemResetWarning,0830.7,5.00,000.00,021.9,021.0,000.0,030.2,023.2,8.8,0000.0,0004.11,0010.78,0003.44
2023-12-30 09:59:00,SystemResetWarning,0830.7,5.01,000.00,021.9,021.0,000.0,030.2,023.2,8.8,0000.0,0004.06,0010.82,0003.43
